Regional Weather Roundup
Issued by NWS

Home | Current Version | Previous Version | Graphics & Text | Print | Product List | Glossary Off
Versions: 1 2 3 4 5 6 7 8 9 10 11 12 13 14 15 16 17 18 19 20 21 22 23 24 25 26 27 28 29 30 31 32 33 34 35 36 37 38 39 40 41 42 43 44 45 46 47 48 49 50

000
ASUS43 KMKX 030611
RWRWI

WISCONSIN REGIONAL WEATHER ROUNDUP
NATIONAL WEATHER SERVICE MILWAUKEE/SULLIVAN WI
100 AM CDT SUN MAY 03 2015

NOTE: "FAIR" INDICATES FEW OR NO CLOUDS BELOW 12,000 FEET WITH NO
SIGNIFICANT WEATHER AND/OR OBSTRUCTIONS TO VISIBILITY.

WIZ001-002-006>008-014>016-023>028-030700-
NORTHWEST WISCONSIN

CITY           SKY/WX    TMP DP  RH WIND       PRES   REMARKS
SUPERIOR ARPT  MOCLDY    42  40  93 CALM      29.72F
6HR MIN TEMP:  40; 6HR MAX TEMP:  49;

ASHLAND        PTCLDY    64  45  49 S12G18    29.73F
6HR MIN TEMP:  48; 6HR MAX TEMP:  64;

HAYWARD        PTCLDY    66  47  50 SW15      29.77S
6HR MIN TEMP:  55; 6HR MAX TEMP:  75;

SIREN          PTCLDY    66  47  49 S10       29.75F
6HR MIN TEMP:  59; 6HR MAX TEMP:  76;

CUMBERLAND     PTCLDY    61  46  59 S12       29.79F
RICE LAKE      PTCLDY    64  48  57 S8        29.82R
6HR MIN TEMP:  58; 6HR MAX TEMP:  76;

CHETEK         PTCLDY    65  51  60 S7        29.80S
6HR MIN TEMP:  63; 6HR MAX TEMP:  74;

LADYSMITH      MOCLDY    63  49  61 S8        29.83S
6HR MIN TEMP:  62; 6HR MAX TEMP:  74;

EAU CLAIRE     CLEAR     64  49  57 SW12      29.82R
6HR MIN TEMP:  64; 6HR MAX TEMP:  76;

MENOMONIE      PTCLDY    65  49  57 S12G20    29.82S
6HR MIN TEMP:  65; 6HR MAX TEMP:  77;

NEW RICHMOND   CLEAR     64  49  59 S12       29.80S
6HR MIN TEMP:  62; 6HR MAX TEMP:  77;

OSCEOLA        CLEAR     66  50  57 S15       29.80S
6HR MIN TEMP:  60; 6HR MAX TEMP:  78;

$$

WIZ003>005-009-010-017-018-030700-
NORTH CENTRAL WISCONSIN

CITY           SKY/WX    TMP DP  RH WIND       PRES   REMARKS
MANITOWISH WTR PTCLDY    59  45  60 S6        29.81S
6HR MIN TEMP:  51; 6HR MAX TEMP:  71;

ARBOR VITAE    PTCLDY    62  47  57 S9        29.82F
6HR MIN TEMP:  59; 6HR MAX TEMP:  72;

WOODRUFF       PTCLDY    62  47  57 S9        29.82F
6HR MIN TEMP:  59; 6HR MAX TEMP:  72;

RHINELANDER    PTCLDY    62  46  55 SW10G20   29.85F
6HR MIN TEMP:  62; 6HR MAX TEMP:  73;

EAGLE RIVER    PTCLDY    59  42  52 S5        29.83S
6HR MIN TEMP:  50; 6HR MAX TEMP:  70;

LAND O LAKES   PTCLDY    56  42  57 S3        29.83F
6HR MIN TEMP:  48; 6HR MAX TEMP:  72;

PHILLIPS       PTCLDY    62  48  60 S9        29.81S
6HR MIN TEMP:  61; 6HR MAX TEMP:  73;

TOMAHAWK       PTCLDY    61  47  60 CALM      29.85S
6HR MIN TEMP:  56; 6HR MAX TEMP:  72;

MEDFORD        PTCLDY    60  48  64 S9        29.85S
6HR MIN TEMP:  60; 6HR MAX TEMP:  72;

MERRILL        CLEAR     62  49  60 SW9       29.86S
6HR MIN TEMP:  62; 6HR MAX TEMP:  73;

$$

WIZ029-030-035-036-043>047-030700-
CENTRAL WISCONSIN

CITY           SKY/WX    TMP DP  RH WIND       PRES   REMARKS
WAUSAU         CLEAR     62  46  55 SW10      29.85S
6HR MIN TEMP:  62; 6HR MAX TEMP:  73;

MOSINEE        CLEAR     59  45  58 S9        29.88F
MARSHFIELD     CLEAR     61  48  62 SW8       29.87S
6HR MIN TEMP:  61; 6HR MAX TEMP:  74;

STEVENS POINT  CLEAR     56  44  63 S7        29.89S
6HR MIN TEMP:  55; 6HR MAX TEMP:  74;

WAUPACA        CLEAR     57  42  57 CALM      29.89S
6HR MIN TEMP:  57; 6HR MAX TEMP:  76;

WAUTOMA        CLEAR     52  42  68 CALM      29.91R
6HR MIN TEMP:  52; 6HR MAX TEMP:  76;

WISC RAPIDS    CLEAR     60  46  59 SW7       29.90R
6HR MIN TEMP:  60; 6HR MAX TEMP:  75;

CAMP DOUGLAS   CLEAR     60  50  68 S6        29.88S
6HR MIN TEMP:  60; 6HR MAX TEMP:  75;

$$

WIZ011>013-019>022-031-037>040-048>050-030700-
NORTHEAST WISCONSIN

CITY           SKY/WX    TMP DP  RH WIND       PRES   REMARKS
ANTIGO         CLEAR     57  44  61 SW10      29.87S
SHAWANO        CLEAR     60  43  53 CALM      29.87S
6HR MIN TEMP:  60; 6HR MAX TEMP:  78;

OCONTO         CLEAR     60  44  56 SW3       29.86S
6HR MIN TEMP:  57; 6HR MAX TEMP:  76;

STURGEON BAY   CLEAR     54  37  54 SW9       29.89F
6HR MIN TEMP:  54; 6HR MAX TEMP:  61;

GREEN BAY      CLEAR     60  45  57 S6        29.88F
6HR MIN TEMP:  58; 6HR MAX TEMP:  75;

MANITOWOC      CLEAR     47  43  86 CALM      29.91F
6HR MIN TEMP:  47; 6HR MAX TEMP:  62;

APPLETON       CLEAR     59  41  51 SW8       29.90S
CLINTONVILLE   CLEAR     59  43  55 SW5       29.87S
OSHKOSH        CLEAR     58  43  57 S9        29.89F
6HR MIN TEMP:  57; 6HR MAX TEMP:  74;

$$

WIZ032>034-041-042-053>061-030700-
SOUTHWEST WISCONSIN

CITY           SKY/WX    TMP DP  RH WIND       PRES   REMARKS
LA CROSSE      CLEAR     64  51  62 S10       29.87R
6HR MIN TEMP:  64; 6HR MAX TEMP:  77;

SPARTA         CLEAR     60  47  63 S3        29.89S
6HR MIN TEMP:  60; 6HR MAX TEMP:  75;

VIROQUA        CLEAR     58  50  73 S9        29.90S
6HR MIN TEMP:  58; 6HR MAX TEMP:  71;

BOSCOBEL       PTCLDY    60  50  69 SW5       29.91S
6HR MIN TEMP:  58; 6HR MAX TEMP:  75;

PRAIRIE DU CHI MOCLDY    63  49  61 SE3       29.90S
6HR MIN TEMP:  62; 6HR MAX TEMP:  72;

PLATTEVILLE    MOCLDY    57  50  77 S7        29.93F
6HR MIN TEMP:  55; 6HR MAX TEMP:  72;

$$

WIZ056-057-062-063-064-067-068-030700-
SOUTH CENTRAL WISCONSIN

CITY           SKY/WX    TMP DP  RH WIND       PRES   REMARKS
REEDSBURG      CLEAR     60  49  67 SW10      29.90R
6HR MIN TEMP:  60; 6HR MAX TEMP:  73;

BARABOO/DELLS  NOT AVBL
LONE ROCK      CLEAR     58  48  69 CALM      29.91F
6HR MIN TEMP:  55; 6HR MAX TEMP:  74;

MINERAL POINT  CLEAR     59  48  67 S6        29.93F
MADISON        MOCLDY    63  47  55 SW5       29.92S
6HR MIN TEMP:  60; 6HR MAX TEMP:  73;

MIDDLETON      CLEAR     62  46  57 SW7       29.93S
6HR MIN TEMP:  59; 6HR MAX TEMP:  73;

WATERTOWN      CLEAR     56  43  61 S5        29.92F
6HR MIN TEMP:  53; 6HR MAX TEMP:  72;

MONROE         MOCLDY    59  50  72 SW10      29.94S
JANESVILLE     MOCLDY    61  43  51 S3        29.94S
$$

WIZ051-052-058>065-066-070>072-030700-
SOUTHEAST WISCONSIN

CITY           SKY/WX    TMP DP  RH WIND       PRES   REMARKS
MILWAUKEE      PTCLDY    59  39  47 SW7       29.94S
6HR MIN TEMP:  58; 6HR MAX TEMP:  67;

WAUKESHA       PTCLDY    59  37  44 S6        29.95S
MILWAUKEE/TIMM PTCLDY    59  37  44 S6        29.94F
RACINE         PTCLDY    61  39  44 SW8       29.96S
6HR MIN TEMP:  51; 6HR MAX TEMP:  62;

BURLINGTON     PTCLDY    50  40  68 SW5       29.95S
6HR MIN TEMP:  50; 6HR MAX TEMP:  71;

KENOSHA        MOCLDY    59  41  51 SW5       29.95S
6HR MIN TEMP:  55; 6HR MAX TEMP:  68;

FOND DU LAC    CLEAR     60  42  51 S3        29.90F
6HR MIN TEMP:  58; 6HR MAX TEMP:  74;

SHEBOYGAN      PTCLDY    50  40  68 S5        29.91F
6HR MIN TEMP:  47; 6HR MAX TEMP:  63;

WEST BEND      CLEAR     57  39  51 S3        29.93F
JUNEAU         CLEAR     57  43  59 S7        29.93S
6HR MIN TEMP:  57; 6HR MAX TEMP:  72;

$$

LSZ147-162-030700-
LAKE SUPERIOR

STATION/POSITION TIME  TEMP    WIND        PRES    WAVE
                       AIR SEA DIR/SP/G            HT/PER
                 (UTC) (F)     (DEG/KT/KT) (MB)    (FT/S)
W MID LAKE BUOY  0550   45 35  190/  4/  6 1007.0F   1
DEVILS ISLAND    0600   47     110/  9/ 10 1006.4F
PORT WING        0500   42      90/  2/  4 1006.8F
SAXON HARBOR     0540   69     190/  3/ 12 1006.4F
$$

LMZ867-665-643>646-030700-
LAKE MICHIGAN

STATION/POSITION TIME  TEMP    WIND        PRES    WAVE
                       AIR SEA DIR/SP/G            HT/PER


USA.gov is the U.S. government's official web portal to all federal, state and local government web resources and services.